Terminal Aerodrome Forecast
Issued by NWS Spokane, WA

Home | Current Version | Previous Version | Text Only | Print | Product List | Glossary On
Versions: 1 2 3 4 5 6 7 8 9 10 11 12 13 14 15 16 17 18 19 20 21 22 23 24 25 26 27 28 29 30 31 32 33 34 35 36 37 38 39 40 41 42 43 44 45 46 47 48 49 50
000
FTUS46 KOTX 270550 CCA
TAFEAT
TAF COR
KEAT 270550Z 2706/2806 00000KT 1/4SM FG VV001
     FM271300 VRB02KT 1SM BR OVC002
     FM272000 VRB03KT 6SM BR OVC006=

USA.gov is the U.S. government's official web portal to all federal, state and local government web resources and services.